�N����,����,�~����,�C��,���x,�C��,����,���ϕ���,�ő�u�ԕ���,�ő厞����,���˗�,�I�_���x,�n�����x,�ő啗���N��,DTYPE
"20/12/26","00:10",0.0,3.5,79.9,1014.9,272.9,2.0,3.5,299.4,0.00,0.4,6.3,"00:04:16",1
"20/12/26","00:20",0.0,3.1,80.2,1015.2,284.8,1.0,2.2,312.3,0.00,0.1,6.3,"00:14:56",1
"20/12/26","00:30",0.0,2.8,80.9,1015.2,244.3,0.7,1.8,293.8,0.00,-0.1,6.2,"00:28:00",1
"20/12/26","00:40",0.0,2.6,81.4,1014.9,260.0,1.2,3.1,321.7,0.00,-0.2,6.0,"00:37:28",1
"20/12/26","00:50",0.0,2.4,82.4,1014.9,234.1,0.7,1.7,192.3,0.00,-0.2,6.1,"00:47:28",1
"20/12/26","01:00",0.0,2.4,83.8,1014.7,189.7,1.3,2.6,171.4,0.00,0.0,5.9,"00:51:52",1
"20/12/26","01:10",0.0,2.0,84.8,1014.7,324.7,1.7,2.5,328.9,0.00,-0.2,5.9,"01:04:00",1
"20/12/26","01:20",0.0,1.6,85.3,1015.2,321.2,1.7,3.3,316.3,0.00,-0.6,5.8,"01:17:28",1
"20/12/26","01:30",0.0,1.3,86.2,1014.9,335.8,1.7,3.3,320.8,0.00,-0.7,5.9,"01:28:32",1
"20/12/26","01:40",0.0,0.9,86.9,1015.2,325.9,2.5,3.3,319.7,0.00,-1.0,5.8,"01:37:44",1
"20/12/26","01:50",0.0,0.5,87.6,1014.9,315.9,2.2,3.1,322.4,0.00,-1.3,5.5,"01:42:40",1
"20/12/26","02:00",0.0,0.4,88.2,1014.9,289.0,0.8,1.7,318.0,0.00,-1.3,5.7,"01:50:32",1
"20/12/26","02:10",0.0,0.6,89.0,1015.2,309.1,1.2,2.8,331.0,0.00,-1.0,5.5,"02:05:12",1
"20/12/26","02:20",0.0,0.6,89.5,1014.9,308.5,1.7,2.9,312.3,0.00,-0.9,5.5,"02:16:48",1
"20/12/26","02:30",0.0,1.0,90.1,1014.9,337.9,1.2,3.4,328.9,0.00,-0.4,5.6,"02:25:36",1
"20/12/26","02:40",0.0,1.4,90.5,1015.4,310.1,2.1,3.6,311.4,0.00,0.1,5.6,"02:34:40",1
"20/12/26","02:50",0.0,1.3,90.7,1015.2,281.2,1.3,2.8,328.2,0.00,0.0,5.7,"02:40:08",1
"20/12/26","03:00",0.0,1.3,91.2,1015.6,323.8,2.0,2.8,327.4,0.00,0.1,5.7,"02:55:04",1
"20/12/26","03:10",0.0,1.3,91.5,1015.4,322.5,2.1,3.1,326.0,0.00,0.1,5.6,"03:03:28",1
"20/12/26","03:20",0.0,1.3,91.7,1015.6,322.4,1.7,3.2,319.6,0.00,0.1,5.6,"03:17:44",1
"20/12/26","03:30",0.0,1.1,92.0,1015.6,311.9,2.0,2.9,314.7,0.00,0.0,5.7,"03:26:16",1
"20/12/26","03:40",0.0,0.9,92.4,1015.6,295.0,1.5,1.9,313.1,0.00,-0.2,5.6,"03:36:56",1
"20/12/26","03:50",0.0,1.1,92.7,1015.4,314.7,1.5,2.7,326.6,0.00,0.1,5.6,"03:46:40",1
"20/12/26","04:00",0.0,1.1,92.8,1015.6,308.3,1.6,2.5,300.1,0.00,0.1,5.6,"03:55:20",1
"20/12/26","04:10",0.0,1.2,93.0,1015.2,261.5,0.8,1.7,314.2,0.00,0.2,5.6,"04:00:32",1
"20/12/26","04:20",0.0,1.3,93.2,1015.6,293.1,2.2,3.2,305.6,0.00,0.4,5.6,"04:12:08",1
"20/12/26","04:30",0.0,1.6,93.4,1015.4,293.2,1.8,2.8,318.0,0.00,0.7,5.5,"04:20:16",1
"20/12/26","04:40",0.0,1.7,93.5,1015.9,287.2,1.6,2.6,307.3,0.00,0.8,5.6,"04:34:24",1
"20/12/26","04:50",0.0,1.8,93.6,1016.1,290.2,1.8,2.5,274.6,0.00,0.9,5.6,"04:40:40",1
"20/12/26","05:00",0.0,1.9,93.8,1015.9,318.7,1.2,2.4,307.7,0.00,1.0,5.6,"04:50:56",1
"20/12/26","05:10",0.0,2.0,93.8,1016.1,289.5,1.2,2.1,329.9,0.00,1.1,5.8,"05:03:04",1
"20/12/26","05:20",0.0,1.9,93.9,1016.1,305.7,2.0,2.9,327.9,0.00,1.1,5.7,"05:12:16",1
"20/12/26","05:30",0.0,1.9,94.0,1016.6,276.7,1.1,1.6,280.4,0.00,1.1,5.8,"05:20:16",1
"20/12/26","05:40",0.0,2.0,94.1,1015.9,290.3,1.0,2.2,319.3,0.00,1.2,6.0,"05:35:28",1
"20/12/26","05:50",0.0,2.1,94.1,1016.1,330.7,1.8,2.7,322.0,0.00,1.3,5.8,"05:48:32",1
"20/12/26","06:00",0.0,2.1,94.1,1016.1,299.4,1.7,2.5,303.9,0.00,1.3,5.5,"05:50:02",1
"20/12/26","06:10",0.0,2.0,94.2,1016.8,302.5,2.3,3.2,316.6,0.00,1.2,5.7,"06:03:44",1
"20/12/26","06:20",0.0,1.9,94.2,1016.8,315.9,2.2,3.2,334.6,0.00,1.1,5.9,"06:12:56",1
"20/12/26","06:30",0.0,1.9,94.2,1016.6,328.9,2.3,3.7,326.6,0.00,1.1,5.8,"06:27:28",1
"20/12/26","06:40",0.0,1.7,94.1,1017.1,303.9,1.0,2.4,325.6,0.00,0.9,5.7,"06:30:08",1
"20/12/26","06:50",0.0,1.4,94.0,1017.3,235.3,0.7,2.7,316.2,0.00,0.6,5.7,"06:49:20",1
"20/12/26","07:00",0.0,1.1,94.0,1017.3,319.1,2.1,2.8,325.0,0.00,0.3,5.5,"06:50:08",1
"20/12/26","07:10",0.0,0.7,94.1,1017.3,323.7,2.1,2.5,325.5,0.00,-0.1,5.5,"07:00:32",1
"20/12/26","07:20",0.0,0.4,94.2,1017.5,300.0,1.7,2.6,320.2,0.00,-0.4,5.4,"07:11:20",1
"20/12/26","07:30",0.0,0.5,94.3,1017.1,319.5,2.1,3.1,321.9,0.00,-0.3,5.2,"07:29:28",1
"20/12/26","07:40",0.0,0.4,94.3,1017.5,312.1,2.1,3.2,322.3,0.00,-0.4,5.3,"07:30:16",1
"20/12/26","07:50",0.0,0.4,94.5,1017.8,300.9,1.7,2.7,318.3,0.00,-0.3,5.2,"07:44:08",1
"20/12/26","08:00",0.0,0.8,94.6,1017.8,279.9,2.0,2.2,300.4,0.00,0.1,5.3,"07:58:44",1
"20/12/26","08:10",0.0,1.4,94.7,1018.0,294.9,1.8,2.4,315.8,0.01,0.7,5.3,"08:06:56",1
"20/12/26","08:20",0.0,2.0,94.6,1018.0,316.9,1.5,2.4,321.9,0.02,1.3,5.4,"08:19:20",1
"20/12/26","08:30",0.0,2.5,94.5,1018.2,300.3,1.2,1.6,316.0,0.04,1.7,5.7,"08:20:08",1
"20/12/26","08:40",0.0,3.3,94.6,1018.7,230.6,0.8,1.6,304.5,0.07,2.6,5.7,"08:38:00",1
"20/12/26","08:50",0.0,3.8,93.4,1019.0,219.8,0.8,1.4,232.5,0.13,2.9,5.6,"08:47:22",1
"20/12/26","09:00",0.0,4.0,92.4,1019.4,196.6,1.3,2.0,167.2,0.07,2.9,5.8,"08:54:28",1
"20/12/26","09:10",0.0,4.1,91.0,1020.1,201.1,1.1,2.7,136.7,0.04,2.8,5.9,"09:05:04",1
"20/12/26","09:20",0.0,4.3,88.8,1020.4,314.3,1.8,5.7,308.8,0.07,2.7,6.0,"09:19:26",1
"20/12/26","09:30",0.0,4.8,86.9,1020.6,293.8,2.6,4.0,325.3,0.12,2.8,5.9,"09:25:54",1
"20/12/26","09:40",0.0,5.4,82.8,1020.6,301.1,3.0,4.4,338.8,0.14,2.8,6.2,"09:30:36",1
"20/12/26","09:50",0.0,6.0,78.2,1020.6,290.2,2.7,4.7,321.3,0.18,2.5,6.4,"09:44:10",1
"20/12/26","10:00",0.0,6.3,73.8,1020.4,288.1,2.1,4.1,307.0,0.14,2.0,6.3,"09:52:52",1
"20/12/26","10:10",0.0,6.6,71.0,1020.6,272.6,1.8,4.3,285.2,0.14,1.8,6.4,"10:04:52",1
"20/12/26","10:20",0.0,6.7,69.4,1020.6,296.1,2.7,4.7,323.7,0.16,1.5,6.6,"10:16:58",1
"20/12/26","10:30",0.0,6.7,67.4,1020.6,313.2,3.4,5.4,317.1,0.16,1.1,6.7,"10:24:52",1
"20/12/26","10:40",0.0,6.8,66.2,1019.9,295.6,3.5,5.2,316.3,0.16,1.0,6.5,"10:36:10",1
"20/12/26","10:50",0.0,6.9,65.6,1019.9,305.0,3.4,5.5,326.9,0.17,0.9,6.7,"10:47:54",1
"20/12/26","11:00",0.0,7.0,65.2,1020.1,313.1,3.7,6.4,331.5,0.15,1.0,7.0,"10:51:08",1
"20/12/26","11:10",0.0,7.1,64.5,1019.9,300.4,3.1,7.7,340.7,0.12,0.9,7.0,"11:09:16",1
"20/12/26","11:20",0.0,7.0,64.2,1019.7,298.4,3.2,5.4,343.9,0.11,0.7,7.1,"11:16:14",1
"20/12/26","11:30",0.0,7.2,64.5,1019.4,296.7,2.8,5.0,314.3,0.13,1.0,7.2,"11:20:10",1
"20/12/26","11:40",0.0,7.7,63.9,1019.2,283.1,2.7,3.9,314.6,0.20,1.3,7.3,"11:31:34",1
"20/12/26","11:50",0.0,8.2,63.5,1019.2,287.7,3.0,4.7,324.4,0.25,1.7,7.6,"11:41:36",1
"20/12/26","12:00",0.0,8.7,62.2,1019.0,281.3,3.1,5.1,306.1,0.31,1.9,7.7,"11:58:24",1
"20/12/26","12:10",0.0,8.6,60.6,1019.0,272.1,3.1,5.2,264.3,0.22,1.5,7.8,"12:03:46",1
"20/12/26","12:20",0.0,8.6,61.1,1019.0,284.0,3.0,4.5,323.3,0.26,1.6,7.9,"12:18:50",1
"20/12/26","12:30",0.0,9.1,61.2,1019.2,289.7,2.7,4.4,315.7,0.39,2.1,8.1,"12:28:36",1
"20/12/26","12:40",0.0,9.4,59.7,1019.0,285.7,2.6,4.8,336.1,0.39,2.0,8.3,"12:36:40",1
"20/12/26","12:50",0.0,9.5,59.3,1018.7,285.5,2.5,4.9,325.6,0.36,2.0,8.7,"12:42:24",1
"20/12/26","13:00",0.0,10.1,58.1,1018.7,270.0,2.5,4.0,264.4,0.42,2.3,8.8,"12:58:56",1
"20/12/26","13:10",0.0,9.7,58.4,1018.7,285.5,3.2,5.5,323.6,0.36,2.0,8.9,"13:07:52",1
"20/12/26","13:20",0.0,9.3,59.8,1018.7,298.6,4.1,6.6,306.0,0.27,1.9,9.2,"13:16:32",1
"20/12/26","13:30",0.0,9.5,60.8,1018.5,302.6,3.9,7.3,341.2,0.28,2.4,9.1,"13:27:52",1
"20/12/26","13:40",0.0,9.1,61.7,1018.2,299.9,3.9,6.4,329.9,0.18,2.2,9.1,"13:35:06",1
"20/12/26","13:50",0.0,9.0,62.5,1018.2,287.9,3.9,6.0,289.9,0.13,2.3,9.3,"13:44:00",1
"20/12/26","14:00",0.0,8.7,63.7,1018.0,292.7,3.1,5.5,319.2,0.07,2.3,8.9,"13:52:40",1
"20/12/26","14:10",0.0,9.7,63.4,1018.0,276.2,2.7,4.4,237.6,0.26,3.1,9.0,"14:07:32",1
"20/12/26","14:20",0.0,9.9,61.8,1018.0,262.4,3.0,4.8,298.8,0.26,3.0,9.2,"14:18:08",1
"20/12/26","14:30",0.0,10.2,61.6,1017.5,265.5,3.1,6.2,257.0,0.30,3.2,9.2,"14:23:04",1
"20/12/26","14:40",0.0,10.8,60.0,1018.0,277.7,2.5,5.1,321.6,0.30,3.4,9.6,"14:30:56",1
"20/12/26","14:50",0.0,10.1,59.9,1018.2,274.1,3.0,5.0,284.4,0.21,2.7,9.6,"14:48:40",1
"20/12/26","15:00",0.0,9.4,61.6,1018.0,295.1,4.2,6.4,275.8,0.11,2.4,9.4,"14:53:32",1
"20/12/26","15:10",0.0,9.2,63.0,1018.2,277.8,3.2,4.4,276.4,0.06,2.6,9.5,"15:03:36",1
"20/12/26","15:20",0.0,9.1,63.7,1018.0,285.2,2.7,3.9,304.0,0.05,2.6,9.2,"15:14:48",1
"20/12/26","15:30",0.0,9.1,64.4,1018.0,294.5,3.4,6.5,330.4,0.09,2.8,9.4,"15:22:48",1
"20/12/26","15:40",0.0,8.8,64.9,1017.8,300.4,3.6,5.2,261.2,0.08,2.6,9.2,"15:31:52",1
"20/12/26","15:50",0.0,9.0,64.4,1018.0,286.0,3.0,4.9,313.3,0.10,2.7,9.2,"15:42:08",1
"20/12/26","16:00",0.0,8.7,64.3,1018.2,282.4,2.5,4.7,325.4,0.06,2.4,9.2,"15:52:56",1
"20/12/26","16:10",0.0,8.6,64.5,1018.5,276.6,2.5,4.9,306.6,0.04,2.3,9.3,"16:07:22",1
"20/12/26","16:20",0.0,8.5,64.5,1018.2,282.8,2.3,4.0,318.5,0.02,2.2,9.2,"16:18:24",1
"20/12/26","16:30",0.0,8.4,64.9,1018.0,300.3,2.5,3.9,303.9,0.01,2.2,9.2,"16:21:20",1
"20/12/26","16:40",0.0,8.3,64.7,1018.0,293.4,1.8,4.1,309.9,0.00,2.1,8.8,"16:33:28",1
"20/12/26","16:50",0.0,8.1,64.9,1017.8,286.4,1.6,2.6,308.5,0.00,1.9,8.8,"16:41:20",1
"20/12/26","17:00",0.0,8.0,65.5,1018.2,295.8,1.8,2.7,321.2,0.00,2.0,8.8,"16:58:56",1
"20/12/26","17:10",0.0,7.8,65.9,1017.8,297.4,1.7,2.5,274.4,0.00,1.9,8.9,"17:00:08",1
"20/12/26","17:20",0.0,7.7,67.4,1018.0,318.9,2.0,3.3,320.2,0.00,2.1,8.7,"17:18:08",1
"20/12/26","17:30",0.0,7.3,69.4,1018.5,322.7,2.0,2.7,326.5,0.00,2.1,8.5,"17:26:40",1
"20/12/26","17:40",0.0,6.7,70.8,1018.2,312.0,1.6,2.1,304.1,0.00,1.8,8.6,"17:30:32",1
"20/12/26","17:50",0.0,6.4,72.3,1018.2,288.8,1.7,3.1,313.9,0.00,1.8,8.3,"17:49:44",1
"20/12/26","18:00",0.0,6.1,73.6,1018.2,319.0,2.6,3.4,329.4,0.00,1.8,8.1,"17:55:20",1
"20/12/26","18:10",0.0,5.7,74.3,1018.2,289.8,1.5,2.5,310.1,0.00,1.5,8.4,"18:00:08",1
"20/12/26","18:20",0.0,5.4,75.1,1018.2,287.9,1.6,2.6,320.6,0.00,1.4,8.2,"18:18:08",1
"20/12/26","18:30",0.0,5.2,76.1,1018.5,300.2,1.8,2.7,317.2,0.00,1.4,7.8,"18:26:24",1
"20/12/26","18:40",0.0,4.9,77.0,1018.2,300.6,1.7,2.5,313.8,0.00,1.3,7.9,"18:39:20",1
"20/12/26","18:50",0.0,4.8,78.2,1018.2,318.5,2.5,3.1,322.3,0.00,1.4,8.1,"18:47:04",1
"20/12/26","19:00",0.0,4.7,79.1,1018.2,289.9,2.0,2.6,312.6,0.00,1.4,7.7,"18:51:36",1
"20/12/26","19:10",0.0,4.6,80.1,1018.2,291.6,2.3,3.4,324.5,0.00,1.5,7.7,"19:04:08",1
"20/12/26","19:20",0.0,4.5,81.2,1018.5,293.0,2.0,2.8,314.3,0.00,1.6,7.7,"19:10:48",1
"20/12/26","19:30",0.0,4.5,82.1,1018.7,287.4,1.7,2.5,310.9,0.00,1.8,7.5,"19:29:28",1
"20/12/26","19:40",0.0,4.6,82.9,1018.7,299.1,2.0,2.7,311.2,0.00,2.0,7.5,"19:34:40",1
"20/12/26","19:50",0.0,4.6,83.5,1018.7,278.1,2.0,2.6,264.3,0.00,2.1,7.3,"19:46:40",1
"20/12/26","20:00",0.0,4.7,83.7,1019.2,297.5,2.2,2.7,295.2,0.00,2.2,7.7,"19:52:48",1
"20/12/26","20:10",0.0,4.8,83.9,1019.2,305.8,2.0,3.2,308.5,0.00,2.4,7.5,"20:05:28",1
"20/12/26","20:20",0.0,4.7,83.9,1019.2,279.6,1.6,1.9,294.6,0.00,2.3,7.5,"20:16:32",1
"20/12/26","20:30",0.0,4.6,84.1,1019.2,305.1,2.0,3.6,321.5,0.00,2.2,7.5,"20:24:40",1
"20/12/26","20:40",0.0,4.8,84.3,1019.4,320.4,1.8,3.1,330.9,0.00,2.4,7.4,"20:39:44",1
"20/12/26","20:50",0.0,4.9,84.3,1019.2,316.2,2.0,2.8,306.5,0.00,2.5,7.3,"20:41:52",1
"20/12/26","21:00",0.0,5.1,84.2,1019.4,317.4,2.5,3.6,316.2,0.00,2.7,7.5,"20:54:56",1
"20/12/26","21:10",0.0,5.3,83.7,1019.2,303.4,2.5,3.2,330.5,0.00,2.8,7.3,"21:00:24",1
"20/12/26","21:20",0.0,5.3,83.1,1019.4,282.0,1.7,2.0,292.5,0.00,2.7,7.3,"21:12:56",1
"20/12/26","21:30",0.0,5.0,82.8,1019.4,291.5,1.2,1.8,299.2,0.00,2.4,7.4,"21:20:16",1
"20/12/26","21:40",0.0,5.0,82.7,1019.2,328.5,0.3,1.1,332.8,0.00,2.3,7.2,"21:37:28",1
"20/12/26","21:50",0.0,4.5,82.6,1019.2,278.9,0.7,1.6,314.8,0.00,1.8,6.9,"21:42:40",1
"20/12/26","22:00",0.0,3.9,82.9,1019.2,276.0,1.1,1.7,307.2,0.00,1.3,7.0,"21:55:28",1
"20/12/26","22:10",0.0,3.8,83.6,1019.0,312.7,1.8,2.6,323.5,0.00,1.3,7.0,"22:04:40",1
"20/12/26","22:20",0.0,3.8,84.1,1018.7,314.0,1.8,2.4,320.3,0.00,1.4,7.1,"22:18:00",1
"20/12/26","22:30",0.0,3.7,84.7,1019.0,306.9,1.8,2.5,317.9,0.00,1.4,6.8,"22:26:32",1
"20/12/26","22:40",0.0,3.6,85.2,1018.7,308.4,1.7,2.5,323.7,0.00,1.4,6.7,"22:30:48",1
"20/12/26","22:50",0.0,3.7,85.8,1018.7,314.9,1.7,2.0,310.9,0.00,1.6,6.9,"22:42:48",1
"20/12/26","23:00",0.0,3.6,86.0,1019.0,303.2,1.3,2.0,320.8,0.00,1.5,6.9,"22:54:08",1
"20/12/26","23:10",0.0,3.2,86.4,1018.7,310.9,1.3,1.9,308.2,0.00,1.2,6.7,"23:09:28",1
"20/12/26","23:20",0.0,2.8,87.0,1018.7,321.5,1.5,2.5,311.1,0.00,0.9,6.7,"23:12:24",1
"20/12/26","23:30",0.0,2.4,87.6,1018.7,321.6,2.5,3.2,324.6,0.00,0.6,6.8,"23:23:12",1
"20/12/26","23:40",0.0,2.2,88.2,1018.7,321.6,2.2,3.2,324.2,0.00,0.5,6.7,"23:32:48",1
"20/12/26","23:50",0.0,1.9,88.7,1018.5,302.0,1.8,2.6,316.1,0.00,0.3,6.3,"23:48:08",1
"20/12/26","24:00",0.0,1.9,89.2,1018.2,318.1,2.3,2.8,318.9,0.00,0.4,6.6,"23:55:20",1
